September 18, 2019
Kravice Batts - Thornhill Reds    « Go Back
Kravice  Batts
Jersey #: 8
Position: U
Bats: L  Throws: R


Player Profile:

Kravice led the Reds in at bats in 2018, hitting .320 in 150 AB. He had a .428 OBP, and added 20 stolen bases. Look for continued success from the speedy utility player, who defends multiple positions for Thornhill throughout the year.

 

College/University- University of Toronto(Ontario)- OUA



Player Statistics for season:

Batting

  AB R H 2B 3B HR RBI SB CS BB SO HBP SAC AVG OBP SLG
Player Totals 185 65 72 12 2 0 17 61 5 25 25 3 1 0.389 0.467 0.476

Opponent Game Date AB R H 2B 3B HR RBI SB CS BB SO HBP SAC AVG OBP SLG
Martingrove Sox 05/08/2019 4 4 2 0 0 0 0 3 0 1 0 0 0 0.500 0.600 0.500
Leaside Leafs 05/15/2019 4 3 4 1 0 0 0 0 0 1 0 0 0 1.000 1.000 1.250
Pickering Red Sox 05/18/2019 4 3 2 0 0 0 1 4 0 1 0 0 0 0.500 0.600 0.500
Kendal Eagles 05/22/2019 4 1 0 0 0 0 0 0 1 0 0 1 0 0.000 0.200 0.000
East York Bulldogs 05/27/2019 5 0 2 0 0 0 0 2 0 0 1 0 0 0.400 0.400 0.400
Newmarket Hawks 05/29/2019 5 3 3 2 0 0 3 2 0 1 0 0 0 0.600 0.667 1.000
Kendal Eagles 06/02/2019 4 2 1 1 0 0 0 0 0 1 1 0 0 0.250 0.400 0.500
Kendal Eagles 06/02/2019 4 0 0 0 0 0 0 0 0 0 1 0 0 0.000 0.000 0.000
Leaside Leafs 06/06/2019 2 1 0 0 0 0 0 2 0 2 2 0 0 0.000 0.500 0.000
Martingrove Sox 06/12/2019 3 1 1 0 0 0 0 0 0 1 0 0 0 0.333 0.500 0.333
East York Bulldogs 06/14/2019 5 0 1 0 0 0 2 2 0 0 1 0 0 0.200 0.200 0.200
Windsor Stars 06/15/2019 3 3 1 0 0 0 0 2 0 1 0 0 0 0.333 0.500 0.333
Brampton Royals 06/16/2019 3 1 2 0 0 0 0 1 0 0 1 0 0 0.667 0.667 0.667
Pickering Red Sox 06/19/2019 5 3 3 1 0 0 1 1 0 0 2 0 0 0.600 0.600 0.800
Windsor A's 06/21/2019 3 2 2 1 0 0 0 1 0 1 0 0 0 0.667 0.750 1.000
Kitchener Panthers Junior 06/22/2019 4 0 2 0 0 0 0 1 0 0 0 0 0 0.500 0.500 0.500
Strathroy Royals 06/22/2019 3 0 1 0 0 0 0 1 0 0 1 0 0 0.333 0.333 0.333
East York Bulldogs 06/26/2019 4 1 0 0 0 0 0 0 0 0 1 0 0 0.000 0.000 0.000
Martingrove Sox 06/27/2019 5 3 3 1 0 0 5 3 0 2 0 0 0 0.600 0.714 0.800
Kendal Eagles 07/03/2019 4 0 2 0 0 0 0 0 0 0 0 0 0 0.500 0.500 0.500
Etobicoke Rangers 07/05/2019 3 1 1 0 0 0 0 1 0 0 0 0 0 0.333 0.333 0.333
Sarnia Braves 07/06/2019 3 0 0 0 0 0 0 0 0 0 0 0 0 0.000 0.000 0.000
Michigan Braves 07/06/2019 3 0 2 0 0 0 0 2 0 0 0 0 0 0.667 0.667 0.667
Newmarket Hawks 07/09/2019 4 2 2 0 0 0 0 1 0 0 0 1 0 0.500 0.600 0.500
East York Bulldogs 07/10/2019 5 1 2 0 0 0 0 3 0 0 2 0 0 0.400 0.400 0.400
Martingrove Sox 07/17/2019 5 3 3 0 1 0 0 3 0 0 0 0 0 0.600 0.600 1.000
Niagara Metros 07/19/2019 4 3 3 1 0 0 0 3 0 0 0 0 0 0.750 0.750 1.000
Windsor Stars 07/20/2019 3 0 1 1 0 0 1 0 0 1 0 0 0 0.333 0.500 0.667
Brampton Royals 07/20/2019 3 2 2 0 0 0 1 2 0 1 0 0 0 0.667 0.750 0.667
Windsor Stars 07/20/2019 3 0 0 0 0 0 0 0 0 0 1 0 0 0.000 0.000 0.000
Pickering Red Sox 07/24/2019 5 1 1 0 0 0 0 2 0 0 0 0 0 0.200 0.200 0.200
Martingrove Sox 07/25/2019 2 4 0 0 0 0 0 2 0 3 0 0 0 0.000 0.600 0.000
Newmarket Hawks 07/30/2019 4 2 3 2 0 0 0 1 1 1 1 0 0 0.750 0.800 1.250
Martingrove Sox 08/02/2019 4 2 2 0 0 0 0 2 0 0 0 0 0 0.500 0.500 0.500
Leaside Leafs 08/02/2019 4 1 2 0 1 0 1 1 0 0 0 0 0 0.500 0.500 1.000
Tecumseh Thunder 08/03/2019 3 0 1 0 0 0 0 0 0 1 0 0 0 0.333 0.500 0.333
Sarnia Braves 08/04/2019 4 1 1 0 0 0 0 2 0 0 1 0 0 0.250 0.250 0.250
Strathroy Royals 08/04/2019 5 1 2 0 0 0 1 1 0 0 1 0 0 0.400 0.400 0.400
Windsor Stars 08/05/2019 1 0 1 0 0 0 0 0 1 1 0 1 0 1.000 1.000 1.000
Sarnia Braves 08/05/2019 3 0 1 0 0 0 0 0 1 1 1 0 0 0.333 0.500 0.333
Sarnia Braves 08/05/2019 4 0 0 0 0 0 0 0 0 0 0 0 0 0.000 0.000 0.000
Newmarket Hawks 08/13/2019 4 1 2 0 0 0 0 3 1 1 1 0 0 0.500 0.600 0.500
Leaside Leafs 08/14/2019 5 3 2 0 0 0 0 3 0 0 1 0 0 0.400 0.400 0.400
Martingrove Sox 08/17/2019 4 3 3 1 0 0 1 1 0 1 0 0 0 0.750 0.800 1.000
Martingrove Sox 08/19/2019 4 1 0 0 0 0 0 1 0 2 3 0 0 0.000 0.333 0.000
Pickering Red Sox 08/23/2019 4 1 1 0 0 0 0 1 0 0 0 0 0 0.250 0.250 0.250
Newmarket Hawks 08/24/2019 2 0 0 0 0 0 0 0 0 0 1 0 1 0.000 0.000 0.000
East York Bulldogs 08/24/2019 5 1 1 0 0 0 0 0 0 0 0 0 0 0.200 0.200 0.200
Pickering Red Sox 08/25/2019 4 0 1 0 0 0 0 1 0 0 1 0 0 0.250 0.250 0.250
Player Totals 185 65 72 12 2 0 17 61 5 25 25 3 1 0.389 0.467 0.476

Pitching

  IP PIT BF AB H R ER BB SO HR WP HB W L SV ERA H/9 WHIP
Player Totals 2 0 8 7 1 0 0 1 1 0 0 0 0 0 0 0.00 4.50 1.00

Opponent Game Date IP PIT BF AB H R ER BB SO HR WP HB W L SV ERA H/9 WHIP
Pickering Red Sox 06/19/2019 0 5 4 1 0 0 1 1 0 0 0 0 0 0 0.00 9.00 2.00
Martingrove Sox 07/25/2019 0 3 3 0 0 0 0 0 0 0 0 0 0 0 0.00 0.00 0.00
Player Totals 2 0 8 7 1 0 0 1 1 0 0 0 0 0 0 0.00 4.50 1.00

Fielding


Warning: Invalid argument supplied for foreach() in /home/content/23/5925023/html/Reds2018/components/com_fastball/views/player/tmpl/default_fielding.php on line 43
  PO A E FPCT
Player Totals 0 0 0 0.000


Warning: Invalid argument supplied for foreach() in /home/content/23/5925023/html/Reds2018/components/com_fastball/views/player/tmpl/default_fielding.php on line 72
Opponent Game Date PO A E FPCT
Player Totals 0 0 0 0.000

Team Leaders - AVG
Kravice Batts 0.389
Argenis Paz 0.340
Sean Sutton 0.340
Jaz Shergill 0.338
Aiden Colangelo 0.333
Team Leaders - ERA
Zach Lampreia 0.57
Chadwick Cameron 1.77
Jaz Shergill 2.79
Max Dieks 4.15
Andy Orfanakos 4.83
Team Leaders - Strikeouts
Jaz Shergill 49
Chadwick Cameron 44
Josh Appel 42
Mack Major 42
Patrick Orr 21